| time (UTC) | temp F | wind direction | speed MPH | gust MPH | rain 1hr in | rain 24hr in | rain mn in | humidity % | barometer mb |
| 20260504201547 | 72 | 181 | 5.0 | 15.0 | 0.00 | 0.00 | 0.00 | 41 | 1010.3 |
| 20260504200044 | 71 | 221 | 9.0 | 17.0 | 0.00 | 0.00 | 0.00 | 41 | 1010.6 |
| 20260504194547 | 71 | 161 | 4.0 | 14.0 | 0.00 | 0.00 | 0.00 | 43 | 1010.8 |
| 20260504193040 | 72 | 127 | 6.0 | 14.0 | 0.00 | 0.00 | 0.00 | 41 | 1011.1 |
| 20260504191537 | 71 | 173 | 5.0 | 13.0 | 0.00 | 0.00 | 0.00 | 41 | 1011.5 |
| 20260504190037 | 70 | 215 | 4.0 | 12.0 | 0.00 | 0.00 | 0.00 | 43 | 1011.7 |
| 20260504184533 | 71 | 200 | 7.0 | 15.0 | 0.00 | 0.00 | 0.00 | 40 | 1012.0 |
| 20260504183032 | 71 | 182 | 6.0 | 12.0 | 0.00 | 0.00 | 0.00 | 41 | 1012.0 |
| 20260504181531 | 71 | 182 | 7.0 | 11.0 | 0.00 | 0.00 | 0.00 | 41 | 1012.1 |
| 20260504180029 | 70 | 129 | 4.0 | 11.0 | 0.00 | 0.00 | 0.00 | 43 | 1012.4 |
| 20260504174527 | 70 | 193 | 5.0 | 12.0 | 0.00 | 0.00 | 0.00 | 43 | 1012.5 |
| 20260504173025 | 70 | 156 | 5.0 | 12.0 | 0.00 | 0.00 | 0.00 | 42 | 1012.7 |
| 20260504171531 | 69 | 154 | 3.0 | 10.0 | 0.00 | 0.00 | 0.00 | 45 | 1012.7 |
| 20260504081537 | 48 | 267 | 0.0 | 2.0 | 0.00 | 0.00 | 0.00 | 67 | 1015.6 |
| 20260504050025 | 48 | 251 | 0.0 | 0.0 | 0.00 | 0.00 | 0.00 | 67 | 1015.7 |
| 20260504044525 | 48 | 251 | 0.0 | 3.0 | 0.00 | 0.00 | 0.00 | 66 | 1015.7 |
| 20260504043033 | 47 | 278 | 2.0 | 7.0 | 0.00 | 0.00 | 0.00 | 67 | 1015.7 |
| 20260504041522 | 46 | 229 | 0.0 | 4.0 | 0.00 | 0.00 | 0.00 | 69 | 1015.7 |
| 20260504040023 | 47 | 316 | 0.0 | 2.0 | 0.00 | 0.00 | 0.00 | 69 | 1015.5 |
| 20260504034516 | 47 | 316 | 0.0 | 0.0 | 0.00 | 0.00 | 0.00 | 67 | 1015.4 |
| 20260504033015 | 48 | 316 | 1.0 | 3.0 | 0.00 | 0.00 | 0.00 | 66 | 1015.2 |
| 20260504031514 | 48 | 255 | 1.0 | 2.0 | 0.00 | 0.00 | 0.00 | 63 | 1015.2 |
| 20260504030016 | 49 | 249 | 0.0 | 1.0 | 0.00 | 0.00 | 0.00 | 62 | 1015.1 |
| 20260504024515 | 49 | 248 | 0.0 | 3.0 | 0.00 | 0.00 | 0.00 | 59 | 1015.2 |
| 20260504023016 | 50 | 260 | 0.0 | 2.0 | 0.00 | 0.00 | 0.00 | 58 | 1015.0 |
| 20260504021514 | 50 | 230 | 0.0 | 2.0 | 0.00 | 0.00 | 0.00 | 55 | 1015.1 |
| 20260504020011 | 51 | 230 | 0.0 | 1.0 | 0.00 | 0.00 | 0.00 | 53 | 1015.1 |
| 20260504014511 | 51 | 230 | 1.0 | 4.0 | 0.00 | 0.00 | 0.00 | 50 | 1015.0 |
| 20260504013012 | 52 | 234 | 1.0 | 6.0 | 0.00 | 0.00 | 0.00 | 48 | 1015.0 |
| 20260504011518 | 53 | 269 | 0.0 | 2.0 | 0.00 | 0.00 | 0.00 | 48 | 1014.7 |
| 20260504010009 | 54 | 280 | 0.0 | 0.0 | 0.00 | 0.00 | 0.00 | 47 | 1014.6 |
| 20260504004509 | 56 | 280 | 0.0 | 0.0 | 0.00 | 0.00 | 0.00 | 45 | 1014.5 |
| 20260504003008 | 57 | 280 | 0.0 | 1.0 | 0.00 | 0.00 | 0.00 | 42 | 1014.4 |
| 20260504001507 | 58 | 280 | 0.0 | 2.0 | 0.00 | 0.00 | 0.00 | 41 | 1014.2 |
| 20260504000007 | 59 | 329 | 0.0 | 4.0 | 0.00 | 0.00 | 0.00 | 38 | 1014.2 |
| 20260503234506 | 60 | 305 | 2.0 | 7.0 | 0.00 | 0.00 | 0.00 | 35 | 1013.9 |
| 20260503233005 | 61 | 343 | 2.0 | 8.0 | 0.00 | 0.00 | 0.00 | 34 | 1013.7 |
| 20260503231505 | 61 | 355 | 2.0 | 14.0 | 0.00 | 0.00 | 0.00 | 33 | 1013.7 |
| 20260503230004 | 61 | 302 | 4.0 | 11.0 | 0.00 | 0.00 | 0.00 | 33 | 1013.7 |
| 20260503224504 | 61 | 336 | 6.0 | 16.0 | 0.00 | 0.00 | 0.00 | 32 | 1013.9 |
| 20260503223002 | 62 | 333 | 5.0 | 11.0 | 0.00 | 0.00 | 0.00 | 32 | 1013.7 |
| 20260503221501 | 62 | 331 | 6.0 | 17.0 | 0.00 | 0.00 | 0.00 | 32 | 1013.8 |
| 20260503220001 | 62 | 286 | 4.0 | 11.0 | 0.00 | 0.00 | 0.00 | 32 | 1013.8 |
| 20260503214600 | 62 | 267 | 8.0 | 20.0 | 0.00 | 0.00 | 0.00 | 32 | 1013.6 |
| 20260503213100 | 61 | 328 | 4.0 | 18.0 | 0.00 | 0.00 | 0.00 | 32 | 1013.8 |
| 20260503211557 | 61 | 19 | 3.0 | 11.0 | 0.00 | 0.00 | 0.00 | 32 | 1013.7 |
| 20260503210058 | 61 | 351 | 8.0 | 17.0 | 0.00 | 0.00 | 0.00 | 31 | 1013.8 |
| 20260503204603 | 61 | 333 | 11.0 | 19.0 | 0.00 | 0.00 | 0.00 | 31 | 1013.7 |
| 20260503203057 | 61 | 309 | 8.0 | 17.0 | 0.00 | 0.00 | 0.00 | 33 | 1014.0 |